Weather History for Hope, BC

Change the Weather History Date:

Tuesday, October 15, 2013

  Actual Average Record
Temperature  
Mean Temperature 50 °F -  
Max Temperature 60 °F 52 °F 68 °F (2002)
Min Temperature 40 °F 39 °F 37 °F (2008)
Degree Days  
Heating Degree Days 15    
Moisture  
Dew Point 44 °F    
Average Humidity 82    
Maximum Humidity 100    
Minimum Humidity 51    
Precipitation  
Precipitation 0.00 in 0.31 in - ()
Sea Level Pressure  
Sea Level Pressure 30.31 in    
Wind  
Wind Speed 7 mph ()    
Max Wind Speed 12 mph    
Max Gust Speed -    
Visibility 9.0 miles    
Events Rain    
Averages and records for this station are not official NWS values.
T = Trace of Precipitation, MM = Missing Value Source: Averaged Metar Reports

Daily Weather History Graph

Daily Weather History Graph

Search for Another Location

Airport:

Trip Planner

Search our weather history database for the weather conditions in past years. The results will help you decide how hot, cold, wet, or windy it might be!

Date:

Astronomy

Oct. 15, 2013 Rise Set
Actual Time 7:27 AM PDT 6:14 PM PDT
Civil Twilight 6:55 AM PDT 6:47 PM PDT
Nautical Twilight 6:18 AM PDT 7:23 PM PDT
Astronomical Twilight 5:41 AM PDT 8:00 PM PDT
Moon 4:36 PM PDT (10/15) 3:39 AM PDT (10/15)
Length of Visible Light 11h 51m
Length of Day
10h 47m
Waxing Gibbous, 88% of the Moon is Illuminated
Oct 15
Waxing Gibbous
Oct 18
Full
Oct 26
Last Quarter
Nov 3
New
Nov 9
First Quarter

Hourly Weather History & Observations

Time (PDT) Temp. Windchill Dew Point Humidity Pressure Visibility Wind Dir Wind Speed Gust Speed Precip Events Conditions
12:00 AM 44.6 °F 39.7 °F 42.8 °F 93% 30.43 in 9.0 mi East 9.2 mph - N/A   Clear
1:00 AM 44.6 °F 38.8 °F 42.8 °F 93% 30.43 in 9.0 mi East 11.5 mph - N/A   Clear
2:00 AM 44 °F - 41 °F 87% 30.41 in - East 9.2 mph - -  
2:00 AM 44.6 °F 39.2 °F 41.0 °F 87% 30.42 in 9.0 mi East 10.4 mph - N/A   Clear
3:00 AM 44.6 °F 40.7 °F 41.0 °F 87% 30.41 in 9.0 mi East 6.9 mph - N/A   Clear
4:00 AM 42.8 °F 37.0 °F 41.0 °F 93% 30.41 in 9.0 mi East 10.4 mph - N/A   Clear
5:00 AM 42 °F - 40 °F 92% 30.40 in - East 9.2 mph - -  
5:00 AM 42.8 °F 37.5 °F 41.0 °F 93% 30.40 in 9.0 mi ESE 9.2 mph - N/A   Clear
6:00 AM 41.0 °F 34.7 °F 41.0 °F 100% 30.38 in 9.0 mi ESE 10.4 mph - N/A   Clear
7:00 AM 41.0 °F 34.3 °F 41.0 °F 100% 30.38 in 9.0 mi ESE 11.5 mph - N/A   Clear
8:00 AM 41 °F - 40 °F 95% 30.38 in - East 8.1 mph - -  
8:00 AM 41.0 °F 35.2 °F 41.0 °F 100% 30.38 in 9.0 mi ESE 9.2 mph - N/A   Partly Cloudy
9:00 AM 41.0 °F 35.8 °F 41.0 °F 100% 30.39 in 9.0 mi ESE 8.1 mph - N/A   Clear
10:00 AM 46.4 °F 42.9 °F 42.8 °F 87% 30.37 in 9.0 mi ESE 6.9 mph - N/A   Clear
11:00 AM 49 °F - 44 °F 77% 30.35 in - East 6.9 mph - -  
11:00 AM 48.2 °F - 42.8 °F 82% 30.35 in 9.0 mi ESE 6.9 mph - N/A   Clear
12:00 PM 53.6 °F - 42.8 °F 67% 30.32 in 9.0 mi ESE 3.5 mph - N/A   Clear
1:00 PM 55.4 °F - 42.8 °F 63% 30.30 in 9.0 mi WSW 3.5 mph - N/A   Partly Cloudy
2:00 PM 57 °F - 46 °F 56% 30.26 in - SW 6.9 mph - -  
2:00 PM 57.2 °F - 44.6 °F 63% 30.27 in 9.0 mi WSW 5.8 mph - N/A   Scattered Clouds
3:00 PM 59.0 °F - 44.6 °F 59% 30.24 in 9.0 mi West 4.6 mph - N/A   Mostly Cloudy
4:00 PM 59.0 °F - 46.4 °F 63% 30.22 in 9.0 mi WSW 8.1 mph - N/A   Clear
5:00 PM 59 °F - 46 °F 51% 30.21 in - SW 2.3 mph - -  
5:00 PM 59.0 °F - 46.4 °F 63% 30.21 in 9.0 mi Calm Calm - N/A   Overcast
6:00 PM 57.2 °F - 46.4 °F 67% 30.21 in 9.0 mi SW 4.6 mph - N/A   Mostly Cloudy
7:00 PM 55.4 °F - 48.2 °F 77% 30.21 in 9.0 mi Calm Calm - N/A   Overcast
7:05 PM 55.4 °F - 46.4 °F 72% 30.22 in 9.0 mi Variable 2.3 mph - N/A Rain Light Rain
7:43 PM 51.8 °F - 48.2 °F 88% 30.21 in 9.0 mi Variable 2.3 mph - N/A   Overcast
8:00 PM 52 °F - 49 °F 84% 30.21 in - East 3.5 mph - -  
8:00 PM 51.8 °F - 48.2 °F 88% 30.21 in 9.0 mi ESE 3.5 mph - N/A   Overcast
9:00 PM 53.6 °F - 48.2 °F 82% 30.22 in 9.0 mi ESE 8.1 mph - N/A   Overcast
10:00 PM 51.8 °F - 48.2 °F 88% 30.22 in 9.0 mi East 3.5 mph - N/A   Overcast
11:00 PM 50 °F - 48 °F 90% 30.21 in - NE 2.3 mph - -  
11:00 PM 50.0 °F - 48.2 °F 94% 30.22 in 9.0 mi ENE 3.5 mph - N/A   Overcast